Regional Weather Roundup
Issued by NWS

Home | Current Version | Previous Version | Graphics & Text | Print | Product List | Glossary On
Versions: 1 2 3 4 5 6 7 8 9 10 11 12 13 14 15 16 17 18 19 20 21 22 23 24 25 26 27 28 29 30 31 32 33 34 35 36 37 38 39 40 41 42 43 44 45 46 47 48 49 50
000
ASUS43 KLMK 221102
RWRKY
KENTUCKY REGIONAL WEATHER ROUNDUP
NATIONAL WEATHER SERVICE LOUISVILLE KY
700 AM EDT TUE JUL 22 2014

NOTE "FAIR" INDICATES FEW OR NO CLOUDS BELOW 12,000 FEET
WITH NO SIGNIFICANT WEATHER AND/OR OBSTRUCTIONS TO VISIBILITY.

KYZ001>023-026-027-061>063-070>075-221200-
WESTERN AND SOUTH CENTRAL KENTUCKY

CITY           SKY/WX    TMP DP  RH WIND       PRES   REMARKS
PADUCAH        CLEAR     66  63  90 CALM      30.09R FOG
HENDERSON      PTCLDY    63  59  88 W3        30.09R
OWENSBORO      CLEAR     67  65  93 CALM      30.10R FOG
HOPKINSVILLE   CLEAR     68  68 100 CALM      30.09R
BOWLING GREEN  CLEAR     70  67  90 CALM      30.10R
GLASGOW        NOT AVBL
$$

KYZ024-025-028>034-038-045-046-053-221200-
NORTH CENTRAL KENTUCKY

CITY           SKY/WX    TMP DP  RH WIND       PRES   REMARKS
LOUISVILLE/SDF PTCLDY    71  68  90 CALM      30.10R FOG
LOUISVILLE/LOU CLEAR     69  67  93 CALM      30.11R FOG
FORT KNOX      CLEAR     66  66  99 N2        30.10R FOG
$$

KYZ035>037-039>044-047>052-055>060-089>105-221200-
NORTHEAST KENTUCKY

CITY           SKY/WX    TMP DP  RH WIND       PRES   REMARKS
LEXINGTON      CLEAR     70  66  87 CALM      30.13R
COVINGTON      PTCLDY    70  66  87 CALM      30.13R FOG
FRANKFORT      CLEAR     67  65  93 N5        30.11R FOG
$$

KYZ054-064>069-076>088-106>120-221200-
SOUTHEAST KENTUCKY

CITY           SKY/WX    TMP DP  RH WIND       PRES   REMARKS
JACKSON        CLEAR     71  66  84 S3        30.16R
LONDON         MOCLDY    70  67  90 CALM      30.15R
SOMERSET       NOT AVBL
MIDDLESBORO    NOT AVBL
MONTICELLO     FOG       67  67 100 CALM      30.14R VSB 1
$$




USA.gov is the U.S. government's official web portal to all federal, state and local government web resources and services.